Location: Fort Wayne
(41.1310°N, 85.1290°W)
Time: 20:28:23
(UTC-04:00)

Courier 1B Rocket - All Passes

Search period start: 02 August 2015 00:00
Search period end: 12 August 2015 00:00
Orbit: 921 x 1202 km, 28.2° (Epoch: 01 August)

Date Brightness Start Highest point End Pass type
(mag) Time Alt. Az. Time Alt. Az. Time Alt. Az.
02 Aug - 08:40:29 10° SSW 08:44:01 15° SSE 08:47:36 10° SE daylight
02 Aug - 10:31:37 10° SW 10:36:33 24° S 10:41:25 10° ESE daylight
02 Aug - 12:24:23 10° WSW 12:29:05 22° S 12:33:46 10° SE daylight
02 Aug - 14:19:09 10° SW 14:21:33 12° SSW 14:23:48 10° S daylight
03 Aug - 07:41:04 10° S 07:43:20 12° SSE 07:45:43 10° SE daylight
03 Aug - 09:31:03 10° SW 09:35:51 22° S 09:40:34 10° ESE daylight
03 Aug - 11:23:28 10° WSW 11:28:25 24° S 11:33:17 10° SE daylight
03 Aug - 13:17:16 10° SW 13:20:53 16° SSW 13:24:26 10° SSE daylight
04 Aug - 08:30:37 10° SSW 08:35:09 20° SSE 08:39:36 10° ESE daylight
04 Aug - 10:22:37 10° SW 10:27:43 25° S 10:32:42 10° SE daylight
04 Aug - 12:15:56 10° WSW 12:20:14 19° SSW 12:24:28 10° SSE daylight
05 Aug - 07:30:25 10° SSW 07:34:26 17° SSE 07:38:24 10° SE daylight
05 Aug - 09:21:50 10° SW 09:27:01 25° S 09:32:02 10° ESE daylight
05 Aug - 11:14:47 10° WSW 11:19:35 22° S 11:24:15 10° SE daylight
05 Aug - 13:09:54 10° SW 13:12:00 12° SSW 13:13:55 10° S daylight
06 Aug - 06:30:42 10° S 06:33:41 13° SSE 06:36:45 10° SE daylight
06 Aug - 08:21:08 10° SW 08:26:17 23° S 08:31:15 10° ESE daylight
06 Aug - 10:13:45 10° WSW 10:18:54 25° S 10:23:51 10° SE daylight
06 Aug - 12:07:46 10° SW 12:11:22 16° SSW 12:14:49 10° SSE daylight
07 Aug - 07:20:34 10° SSW 07:25:32 21° SSE 07:30:20 10° ESE daylight
07 Aug - 09:12:48 10° SW 09:18:11 26° S 09:23:20 10° SE daylight
07 Aug - 11:06:16 10° WSW 11:10:43 19° SSW 11:14:59 10° SSE daylight
08 Aug - 06:20:14 10° SSW 06:24:45 18° SSE 06:29:11 10° ESE daylight
08 Aug - 08:11:54 10° SW 08:17:25 26° S 08:22:42 10° ESE daylight
08 Aug - 10:05:01 10° WSW 10:10:02 23° S 10:14:51 10° SE daylight
08 Aug - 12:00:21 10° SW 12:02:27 12° SSW 12:04:21 10° S daylight
09 Aug - 05:20:18 10° S 05:23:57 15° SSE 05:27:39 10° SE visible
09 Aug - 07:11:05 10° SW 07:16:38 25° S 07:21:56 10° ESE daylight
09 Aug - 09:03:52 10° WSW 09:09:19 26° S 09:14:30 10° SE daylight
09 Aug - 10:58:03 10° SW 11:01:49 16° SSW 11:05:23 10° SSE daylight
10 Aug - 04:21:26 10° S 04:23:07 11° SSE 04:25:04 10° SE visible
10 Aug - 06:10:26 10° SW 06:15:49 23° SSE 06:21:01 10° ESE visible
10 Aug - 08:02:49 10° WSW 08:08:33 27° S 08:14:00 10° SE daylight
10 Aug - 09:56:26 10° WSW 10:01:09 20° SSW 10:05:37 10° SSE daylight
11 Aug - 05:10:01 10° SSW 05:14:59 19° SSE 05:19:52 10° ESE visible
11 Aug - 07:01:49 10° SW 07:07:45 28° S 07:13:21 10° ESE daylight
11 Aug - 08:55:04 10° WSW 09:00:26 24° SSW 09:05:30 10° SE daylight
11 Aug - 10:50:29 10° SW 10:52:53 12° SSW 10:55:01 10° S daylight
